Meteo orario Abramivs'ka Dolyna

Oggi, 14 Giugno, Lunedi

Tempo Temperatura Precipitazioni Vento Pressione Umidità
00:00 +11°C° 0 mm 4 m/s 739 mm Hg 93%
01:00 +10°C° 0 mm 4 m/s 739 mm Hg 94%
02:00 +10°C° 0 mm 4 m/s 739 mm Hg 94%
03:00 +11°C° 0.4 mm 4 m/s 739 mm Hg 94%
04:00 +11°C° 0.4 mm 4 m/s 739 mm Hg 94%
05:00 +11°C° 0.4 mm 4 m/s 739 mm Hg 94%
06:00 +11°C° 1.9 mm 4 m/s 739 mm Hg 95%
07:00 +11°C° 1.9 mm 4 m/s 739 mm Hg 96%
08:00 +10°C° 0 mm 5 m/s 739 mm Hg 96%
09:00 +12°C° 0.8 mm 5 m/s 740 mm Hg 96%
10:00 +12°C° 0.8 mm 5 m/s 740 mm Hg 96%
11:00 +12°C° 0.8 mm 5 m/s 740 mm Hg 96%
12:00 +14°C° 0.2 mm 4 m/s 740 mm Hg 93%
13:00 +15°C° 0.2 mm 4 m/s 740 mm Hg 90%
14:00 +17°C° 0.2 mm 3 m/s 740 mm Hg 87%
15:00 +18°C° 0.2 mm 3 m/s 740 mm Hg 86%
16:00 +18°C° 0.2 mm 3 m/s 740 mm Hg 85%
17:00 +19°C° 0.2 mm 2 m/s 740 mm Hg 84%
18:00 +18°C° 0 mm 2 m/s 741 mm Hg 86%
19:00 +17°C° 0 mm 2 m/s 741 mm Hg 88%
20:00 +16°C° 0 mm 2 m/s 741 mm Hg 90%
21:00 +16°C° 0 mm 2 m/s 741 mm Hg 91%
22:00 +16°C° 0 mm 2 m/s 741 mm Hg 91%
23:00 +16°C° 0 mm 2 m/s 741 mm Hg 91%

Domani, 15 Giugno, Martedi

Tempo Temperatura Precipitazioni Vento Pressione Umidità
00:00 +16°C° 0.1 mm 3 m/s 741 mm Hg 93%
01:00 +14°C° 0.1 mm 3 m/s 741 mm Hg 94%
02:00 +14°C° 0.1 mm 3 m/s 741 mm Hg 96%
03:00 +14°C° 0 mm 3 m/s 741 mm Hg 96%
04:00 +14°C° 0 mm 3 m/s 741 mm Hg 95%
05:00 +14°C° 0 mm 3 m/s 741 mm Hg 95%
06:00 +17°C° 0 mm 4 m/s 742 mm Hg 91%
07:00 +18°C° 0 mm 4 m/s 742 mm Hg 87%
08:00 +20°C° 0 mm 4 m/s 742 mm Hg 83%
09:00 +21°C° 0.7 mm 5 m/s 742 mm Hg 79%
10:00 +22°C° 0.7 mm 5 m/s 742 mm Hg 75%
11:00 +23°C° 0.7 mm 5 m/s 742 mm Hg 71%
12:00 +25°C° 0.9 mm 5 m/s 742 mm Hg 70%
13:00 +25°C° 0.9 mm 5 m/s 741 mm Hg 70%
14:00 +25°C° 0.9 mm 5 m/s 741 mm Hg 69%
15:00 +23°C° 0.8 mm 5 m/s 741 mm Hg 73%
16:00 +23°C° 0.8 mm 5 m/s 741 mm Hg 77%
17:00 +23°C° 0.8 mm 5 m/s 741 mm Hg 80%
18:00 +21°C° 0.7 mm 5 m/s 740 mm Hg 83%
19:00 +20°C° 0.7 mm 5 m/s 740 mm Hg 86%
20:00 +19°C° 0.7 mm 5 m/s 740 mm Hg 88%
21:00 +17°C° 0.1 mm 5 m/s 740 mm Hg 90%
22:00 +17°C° 0.1 mm 5 m/s 740 mm Hg 91%
23:00 +16°C° 0.1 mm 5 m/s 740 mm Hg 92%

Dopodomani, 16 Giugno, Mercoledi

Tempo Temperatura Precipitazioni Vento Pressione Umidità
00:00 +16°C° 0.4 mm 5 m/s 740 mm Hg 92%
01:00 +15°C° 0.4 mm 5 m/s 740 mm Hg 93%
02:00 +15°C° 0.4 mm 5 m/s 740 mm Hg 93%
03:00 +15°C° 0.4 mm 6 m/s 740 mm Hg 93%
04:00 +15°C° 0.4 mm 6 m/s 740 mm Hg 93%
05:00 +15°C° 0.4 mm 6 m/s 740 mm Hg 93%
06:00 +16°C° 0 mm 6 m/s 741 mm Hg 89%
07:00 +17°C° 0 mm 6 m/s 741 mm Hg 86%
08:00 +20°C° 0 mm 7 m/s 741 mm Hg 83%
09:00 +21°C° 0.5 mm 7 m/s 741 mm Hg 81%
10:00 +21°C° 0.5 mm 6 m/s 741 mm Hg 78%
11:00 +22°C° 0.5 mm 6 m/s 741 mm Hg 76%
12:00 +22°C° 1.1 mm 6 m/s 741 mm Hg 77%
13:00 +22°C° 1.1 mm 6 m/s 741 mm Hg 78%
14:00 +22°C° 1.1 mm 6 m/s 741 mm Hg 78%
15:00 +22°C° 0.9 mm 6 m/s 741 mm Hg 80%
16:00 +22°C° 0.9 mm 6 m/s 742 mm Hg 82%
17:00 +21°C° 0.9 mm 5 m/s 742 mm Hg 84%
18:00 +20°C° 0.4 mm 5 m/s 742 mm Hg 86%
19:00 +20°C° 0.4 mm 4 m/s 742 mm Hg 89%
20:00 +19°C° 0.4 mm 3 m/s 742 mm Hg 91%
21:00 +18°C° 0.3 mm 4 m/s 742 mm Hg 92%
22:00 +18°C° 0.3 mm 4 m/s 742 mm Hg 93%
23:00 +17°C° 0.3 mm 4 m/s 743 mm Hg 94%

17 Giugno, Giovedi

Tempo Temperatura Precipitazioni Vento Pressione Umidità
00:00 +17°C° 0.2 mm 4 m/s 743 mm Hg 94%
01:00 +17°C° 0.2 mm 4 m/s 743 mm Hg 93%
02:00 +16°C° 0.2 mm 5 m/s 743 mm Hg 93%
03:00 +16°C° 0.1 mm 5 m/s 743 mm Hg 93%
04:00 +16°C° 0.1 mm 5 m/s 743 mm Hg 94%
05:00 +16°C° 0.1 mm 5 m/s 744 mm Hg 95%
06:00 +17°C° 0 mm 5 m/s 744 mm Hg 92%
07:00 +19°C° 0 mm 5 m/s 744 mm Hg 88%
08:00 +21°C° 0 mm 6 m/s 744 mm Hg 85%
09:00 +22°C° 0.2 mm 6 m/s 744 mm Hg 81%
10:00 +23°C° 0.2 mm 6 m/s 745 mm Hg 76%
11:00 +26°C° 0.2 mm 6 m/s 745 mm Hg 72%
12:00 +26°C° 0.5 mm 6 m/s 745 mm Hg 72%
13:00 +26°C° 0.5 mm 6 m/s 745 mm Hg 72%
14:00 +26°C° 0.5 mm 6 m/s 745 mm Hg 73%
15:00 +26°C° 0.6 mm 6 m/s 745 mm Hg 76%
16:00 +24°C° 0.6 mm 6 m/s 745 mm Hg 79%
17:00 +24°C° 0.6 mm 6 m/s 745 mm Hg 83%
18:00 +23°C° 0.6 mm 6 m/s 745 mm Hg 86%
19:00 +22°C° 0.6 mm 5 m/s 745 mm Hg 89%
20:00 +21°C° 0.6 mm 5 m/s 745 mm Hg 91%
21:00 +21°C° 0.4 mm 5 m/s 746 mm Hg 92%
22:00 +20°C° 0.4 mm 5 m/s 746 mm Hg 93%
23:00 +20°C° 0.4 mm 5 m/s 746 mm Hg 94%

18 Giugno, Venerdi

Tempo Temperatura Precipitazioni Vento Pressione Umidità
00:00 +20°C° 0 mm 5 m/s 746 mm Hg 95%
01:00 +19°C° 0 mm 5 m/s 746 mm Hg 96%
02:00 +19°C° 0 mm 5 m/s 746 mm Hg 97%
03:00 +19°C° 0 mm 5 m/s 746 mm Hg 96%
04:00 +17°C° 0 mm 5 m/s 746 mm Hg 96%
05:00 +17°C° 0 mm 5 m/s 747 mm Hg 96%
06:00 +19°C° 0 mm 5 m/s 747 mm Hg 93%
07:00 +20°C° 0 mm 5 m/s 747 mm Hg 90%
08:00 +21°C° 0 mm 5 m/s 747 mm Hg 87%
09:00 +22°C° 0.1 mm 6 m/s 747 mm Hg 84%
10:00 +23°C° 0.1 mm 6 m/s 747 mm Hg 82%
11:00 +24°C° 0.1 mm 6 m/s 747 mm Hg 79%
12:00 +24°C° 0.3 mm 6 m/s 747 mm Hg 79%
13:00 +24°C° 0.3 mm 6 m/s 747 mm Hg 79%
14:00 +24°C° 0.3 mm 6 m/s 747 mm Hg 79%
15:00 +24°C° 0.4 mm 6 m/s 747 mm Hg 79%
16:00 +24°C° 0.4 mm 6 m/s 747 mm Hg 80%
17:00 +24°C° 0.4 mm 6 m/s 747 mm Hg 81%
18:00 +22°C° 0.4 mm 5 m/s 747 mm Hg 85%
19:00 +21°C° 0.4 mm 4 m/s 747 mm Hg 88%
20:00 +20°C° 0.4 mm 3 m/s 748 mm Hg 92%
21:00 +20°C° 0.2 mm 3 m/s 748 mm Hg 93%
22:00 +19°C° 0.2 mm 3 m/s 748 mm Hg 94%
23:00 +19°C° 0.2 mm 3 m/s 748 mm Hg 95%

19 Giugno, Sabato

Tempo Temperatura Precipitazioni Vento Pressione Umidità
00:00 +18°C° 0 mm 3 m/s 748 mm Hg 96%
01:00 +18°C° 0 mm 3 m/s 748 mm Hg 96%
02:00 +17°C° 0 mm 3 m/s 748 mm Hg 97%
03:00 +17°C° 0 mm 3 m/s 748 mm Hg 97%
04:00 +17°C° 0 mm 3 m/s 749 mm Hg 97%
05:00 +17°C° 0 mm 3 m/s 749 mm Hg 97%
06:00 +18°C° 0 mm 3 m/s 749 mm Hg 92%
07:00 +20°C° 0 mm 4 m/s 749 mm Hg 87%
08:00 +21°C° 0 mm 4 m/s 749 mm Hg 82%
09:00 +22°C° 0 mm 4 m/s 749 mm Hg 77%
10:00 +23°C° 0 mm 5 m/s 749 mm Hg 73%
11:00 +25°C° 0 mm 5 m/s 749 mm Hg 68%
12:00 +25°C° 0.1 mm 5 m/s 749 mm Hg 68%
13:00 +25°C° 0.1 mm 5 m/s 749 mm Hg 68%
14:00 +25°C° 0.1 mm 5 m/s 748 mm Hg 67%
15:00 +25°C° 0 mm 4 m/s 748 mm Hg 69%
16:00 +25°C° 0 mm 4 m/s 748 mm Hg 71%
17:00 +23°C° 0 mm 4 m/s 748 mm Hg 73%
18:00 +22°C° 0 mm 4 m/s 748 mm Hg 77%
19:00 +21°C° 0 mm 3 m/s 748 mm Hg 80%
20:00 +20°C° 0 mm 3 m/s 748 mm Hg 84%
21:00 +19°C° 0 mm 3 m/s 748 mm Hg 85%
22:00 +19°C° 0 mm 3 m/s 748 mm Hg 86%
23:00 +18°C° 0 mm 3 m/s 748 mm Hg 87%
Mostrare altro

Abbiamo bisogno del tuo consenso

Meteoprog e i nostri fornitori di servizi possono memorizzare e accedere a dati personali come cookie, identificatori di dispositivi o altre tecnologie simili sul tuo dispositivo e possono elaborare tali dati per personalizzare i contenuti e gli annunci, nonché fornire funzionalità dei social media e analizzarne il traffico.

  • Archiviare e/o accedere alle informazioni sul tuo dispositivo

    Cookie, identificatori di dispositivi o altre informazioni possono essere memorizzati o resi accessibili sul tuo dispositivo per le finalità sopra indicate.

  • Annunci e contenuti personalizzati, misurazione di annunci e contenuti, approfondimenti sul pubblico e sviluppo di prodotti

    Gli annunci e i contenuti possono essere personalizzati in base a un profilo. È possibile aggiungere più dati per personalizzare meglio annunci e contenuti. È possibile misurare il rendimento degli annunci e dei contenuti. È possibile ricavare informazioni sul pubblico che ha visto gli annunci e i contenuti. Tali dati possono essere utilizzati per sviluppare o migliorare l'esperienza, i sistemi e il software dell'utente.

Cliccando su “Accetto”, acconsenti all'uso di cookie, identificatori di dispositivo, web beacon o altre tecnologie simili. Puoi modificare le impostazioni nel browser del tuo dispositivo.

Per determinati scopi, è possibile fare affidamento su interessi legali, piuttosto che sul consenso. Puoi approfondire questo argomento consultando la nostra Informativa sulla privacy e sui cookie.